Time,TemperatureF,DewpointF,PressureIn,WindDirection,WindDirectionDegrees,WindSpeedMPH,WindSpeedGustMPH,Humidity,HourlyPrecipIn,Conditions,Clouds,dailyrainin,SoftwareType,DateUTC
2013-06-10 00:02:00,59.0,53.0,-100.00,NW,307,0.0,0.0,80,0.00,,,0.00,,2013-06-10 07:02:00,
2013-06-10 00:11:00,59.0,53.0,-100.00,NW,307,0.0,0.0,80,0.00,,,0.00,,2013-06-10 07:11:00,
2013-06-10 00:21:00,59.0,53.0,-100.00,WNW,283,0.0,0.0,80,0.00,,,0.00,,2013-06-10 07:21:00,
2013-06-10 00:32:00,59.0,53.0,-100.00,West,270,0.0,0.0,81,0.00,,,0.00,,2013-06-10 07:32:00,
2013-06-10 00:42:00,59.0,53.0,-100.00,West,270,0.0,0.0,81,0.00,,,0.00,,2013-06-10 07:42:00,
2013-06-10 00:52:00,59.0,53.0,-100.00,WSW,257,0.0,0.0,80,0.00,,,0.00,,2013-06-10 07:52:00,
2013-06-10 01:02:00,59.0,53.0,-100.00,SW,214,2.0,0.0,81,0.00,,,0.00,,2013-06-10 08:02:00,
2013-06-10 01:12:00,59.0,53.0,-100.00,SW,214,2.0,0.0,81,0.00,,,0.00,,2013-06-10 08:12:00,
2013-06-10 01:21:00,59.0,53.0,-100.00,WSW,243,1.0,0.0,80,0.00,,,0.00,,2013-06-10 08:21:00,
2013-06-10 01:32:00,59.0,53.0,-100.00,WSW,243,0.0,0.0,80,0.00,,,0.00,,2013-06-10 08:32:00,
2013-06-10 01:41:00,59.0,53.0,-100.00,WSW,243,0.0,0.0,80,0.00,,,0.00,,2013-06-10 08:41:00,
2013-06-10 01:52:00,59.0,53.0,-100.00,WNW,285,0.0,3.0,80,0.00,,,0.00,,2013-06-10 08:52:00,
2013-06-10 02:01:00,59.0,53.0,-100.00,WNW,288,3.0,4.0,80,0.00,,,0.00,,2013-06-10 09:01:00,
2013-06-10 02:11:00,59.0,53.0,-100.00,WNW,288,3.0,4.0,80,0.00,,,0.00,,2013-06-10 09:11:00,
2013-06-10 02:22:00,59.0,53.0,-100.00,WSW,248,3.0,3.0,80,0.00,,,0.00,,2013-06-10 09:22:00,
2013-06-10 02:32:00,59.0,52.0,-100.00,West,269,0.0,0.0,79,0.00,,,0.00,,2013-06-10 09:32:00,
2013-06-10 02:42:00,59.0,52.0,-100.00,West,269,0.0,0.0,79,0.00,,,0.00,,2013-06-10 09:42:00,
2013-06-10 02:53:00,59.0,52.0,-100.00,WNW,288,2.0,0.0,79,0.00,,,0.00,,2013-06-10 09:53:00,
2013-06-10 03:02:00,59.0,52.0,-100.00,West,260,0.0,0.0,79,0.00,,,0.00,,2013-06-10 10:02:00,
2013-06-10 03:12:00,59.0,52.0,-100.00,West,263,1.0,0.0,79,0.00,,,0.00,,2013-06-10 10:12:00,
2013-06-10 03:22:00,59.0,52.0,-100.00,West,263,1.0,0.0,79,0.00,,,0.00,,2013-06-10 10:22:00,
2013-06-10 03:33:00,59.0,52.0,-100.00,West,263,0.0,0.0,78,0.00,,,0.00,,2013-06-10 10:33:00,
2013-06-10 03:42:00,59.0,52.0,-100.00,West,263,0.0,0.0,78,0.00,,,0.00,,2013-06-10 10:42:00,
2013-06-10 03:52:00,59.0,52.0,-100.00,West,263,0.0,0.0,78,0.00,,,0.00,,2013-06-10 10:52:00,
2013-06-10 04:02:00,59.0,52.0,-100.00,West,273,0.0,0.0,79,0.00,,,0.00,,2013-06-10 11:02:00,
2013-06-10 04:11:00,59.0,52.0,-100.00,West,273,0.0,0.0,79,0.00,,,0.00,,2013-06-10 11:11:00,
2013-06-10 04:22:00,59.0,52.0,-100.00,West,273,0.0,0.0,79,0.00,,,0.00,,2013-06-10 11:22:00,
2013-06-10 04:32:00,59.0,52.0,-100.00,West,273,0.0,0.0,79,0.00,,,0.00,,2013-06-10 11:32:00,
2013-06-10 04:42:00,59.0,52.0,-100.00,West,273,0.0,0.0,79,0.00,,,0.00,,2013-06-10 11:42:00,
2013-06-10 04:52:00,59.0,52.0,-100.00,West,273,0.0,0.0,79,0.00,,,0.00,,2013-06-10 11:52:00,
2013-06-10 05:02:00,59.0,53.0,-100.00,West,273,0.0,0.0,80,0.00,,,0.00,,2013-06-10 12:02:00,
2013-06-10 05:12:00,59.0,53.0,-100.00,West,273,0.0,0.0,80,0.00,,,0.00,,2013-06-10 12:12:00,
2013-06-10 05:22:00,59.0,52.0,-100.00,West,273,0.0,0.0,79,0.00,,,0.00,,2013-06-10 12:22:00,
2013-06-10 05:32:00,59.0,53.0,-100.00,West,273,0.0,0.0,80,0.00,,,0.00,,2013-06-10 12:32:00,
2013-06-10 05:42:00,59.0,53.0,-100.00,West,273,0.0,0.0,80,0.00,,,0.00,,2013-06-10 12:42:00,
2013-06-10 05:52:00,59.0,53.0,-100.00,West,273,0.0,0.0,80,0.00,,,0.00,,2013-06-10 12:52:00,
2013-06-10 06:02:00,59.0,53.0,-100.00,West,273,0.0,0.0,81,0.00,,,0.00,,2013-06-10 13:02:00,
2013-06-10 06:11:00,59.0,53.0,-100.00,West,273,0.0,0.0,81,0.00,,,0.00,,2013-06-10 13:11:00,
2013-06-10 06:22:00,59.0,53.0,-100.00,West,273,0.0,0.0,81,0.00,,,0.00,,2013-06-10 13:22:00,
2013-06-10 06:32:00,58.0,52.0,-100.00,West,273,0.0,0.0,81,0.00,,,0.00,,2013-06-10 13:32:00,
2013-06-10 06:41:00,58.0,52.0,-100.00,West,273,0.0,0.0,81,0.00,,,0.00,,2013-06-10 13:41:00,
2013-06-10 06:52:00,58.0,52.0,-100.00,West,273,0.0,0.0,81,0.00,,,0.00,,2013-06-10 13:52:00,
2013-06-10 07:02:00,59.0,53.0,-100.00,West,273,0.0,0.0,81,0.00,,,0.00,,2013-06-10 14:02:00,
2013-06-10 07:11:00,59.0,53.0,-100.00,West,273,0.0,0.0,81,0.00,,,0.00,,2013-06-10 14:11:00,
2013-06-10 07:22:00,59.0,53.0,-100.00,West,273,0.0,0.0,81,0.00,,,0.00,,2013-06-10 14:22:00,
2013-06-10 07:31:00,59.0,53.0,-100.00,West,273,0.0,0.0,81,0.00,,,0.00,,2013-06-10 14:31:00,